Location: Bannatyne
(13.0833°N, 59.5333°W)
Time: 17:39:55
(UTC+00:00)

Vanguard 3 - Pass Details

Date: 28 January 2020
Orbit: 508 x 3263 km, 33.3° (Epoch: 25 February)

Event Time Altitude Azimuth Distance (km) Brightness Sun altitude
Rises 16:07:32 0° 209° (SSW) 4,659 11.4 58.7°
Reaches altitude 10° 16:10:29 10° 200° (SSW) 4,013 11.3 58.7°
Maximum altitude 16:21:00 39° 135° (SE) 3,270 11.2 58.6°
Drops below altitude 10° 16:36:51 10° 74° (ENE) 6,021 11.5 58.1°
Sets 16:42:27 0° 68° (ENE) 7,191 11.8 57.8°
